Temp
18 18 19 19 19 20 20 21 21 22 23 23 23 23 24 24 25 25 26 26 26 26 26 26 27 26 26 25 25 25 22 22 25 25 26 25 25 25 26 25 24 24 24 23 21
17 18 18 19 19 20 20 21 21 22 22 23 23 23 23 24 25 26 26 27 27 27 26 26 26 26 26 26 26 24 21 24 26 26 25 26 26 26 25 24 24 23 23 23 22
17 18 18 19 19 20 20 21 21 21 22 22 23 23 23 24 24 26 26 27 27 27 27 27 27 27 27 27 27 25 24 26 29 29 28 26 26 26 24 23 24 23 21 22 22
17 17 18 18 19 20 20 21 21 21 21 22 22 23 23 23 22 26 26 26 27 27 27 27 27 27 25 25 27 26 27 28 31 30 28 26 27 24 25 26 27 25 24 23 22
17 17 18 18 19 19 20 21 21 21 21 22 22 22 22 22 25 26 26 26 27 27 27 27 27 26 25 24 26 26 28 29 30 30 29 28 27 26 25 27 27 25 23 23 23
16 17 17 18 19 19 20 20 21 21 21 21 21 21 21 20 25 26 26 26 26 27 27 27 27 27 26 25 25 28 28 28 30 30 29 27 27 28 25 26 26 24 23 22 23
16 17 17 18 18 19 20 20 20 21 20 20 21 21 21 24 25 25 26 26 26 26 27 27 27 27 27 24 27 28 26 27 30 29 29 28 26 27 26 25 24 23 22 23 23
16 16 17 18 18 19 19 20 20 20 20 20 20 20 21 25 25 26 25 27 27 27 27 28 28 27 26 27 27 25 25 25 28 28 27 28 25 25 24 24 23 23 22 22 22
16 16 17 18 18 18 19 20 20 20 20 19 19 19 22 24 25 27 26 27 27 27 28 28 27 27 26 24 22 22 24 26 25 27 27 27 25 25 24 24 23 23 24 23 22
16 17 17 18 18 18 19 19 19 19 19 19 19 19 23 24 25 25 27 27 27 27 28 27 27 21 19 22 23 24 24 24 25 26 24 24 25 22 24 24 23 23 23 24 23
15 16 17 17 19 19 19 19 18 18 18 22 22 22 23 24 25 25 26 27 26 27 24 25 23 23 23 24 25 25 24 24 25 26 25 22 22 21 23 24 23 23 23 23 24
15 16 17 17 19 19 19 19 18 18 18 22 21 21 23 23 22 25 26 26 26 24 24 22 23 23 24 24 24 24 25 24 25 25 24 23 22 22 23 22 23 23 23 24 24
15 16 17 17 19 19 19 19 19 19 18 21 21 22 23 24 23 25 26 26 25 23 24 22 25 25 26 26 26 24 25 24 26 25 24 24 23 23 24 23 24 23 23 24 24
15 16 17 18 19 19 19 19 20 20 14 18 20 23 24 24 24 26 26 27 25 24 22 23 25 26 26 25 25 24 23 25 25 24 23 23 22 21 21 20 23 24 24 25 26
15 16 17 18 18 20 20 20 20 20 17 22 21 23 23 25 26 26 27 27 24 24 23 24 25 26 26 25 26 25 26 25 25 22 22 24 22 20 19 21 21 23 25 25 26
16 16 17 18 19 19 20 20 20 16 18 22 23 22 22 24 25 25 25 27 27 24 24 24 26 26 25 27 25 26 26 22 18 19 22 22 21 20 20 21 22 22 24 26 26
17 17 18 18 19 19 20 20 15 16 20 23 23 22 22 23 25 25 23 23 22 22 23 25 26 26 27 27 25 23 21 21 23 20 21 20 20 21 22 21 22 23 24 25 25
17 18 19 20 20 19 20 17 18 19 19 21 22 21 22 23 24 24 22 21 23 21 19 22 24 26 26 26 26 25 22 20 24 21 21 20 21 23 22 23 23 24 24 24 24
17 19 20 19 20 19 19 15 16 17 21 21 21 23 23 24 24 24 22 21 21 21 23 21 24 25 26 27 26 25 23 21 17 17 20 19 20 21 20 20 22 23 24 23 23
17 18 18 19 19 19 16 15 17 18 21 21 21 22 23 23 23 22 20 22 23 22 24 23 24 25 26 26 25 25 22 23 18 22 23 20 19 20 23 22 22 21 22 23 23
17 17 17 18 18 19 14 14 17 21 22 22 22 22 21 23 21 20 22 24 23 21 23 21 22 24 25 26 25 24 22 17 17 17 19 20 20 19 21 22 21 22 23 23 24
15 14 17 17 17 11 14 16 21 21 23 21 21 20 20 21 22 20 22 24 25 22 22 21 18 21 24 24 23 24 23 19 20 21 16 18 21 22 21 21 23 23 24 24 24
12 14 17 16 14 13 15 18 20 21 20 21 22 23 21 22 22 21 21 25 25 22 22 21 20 20 23 22 25 25 22 18 16 16 17 21 22 22 21 22 22 23 24 22 21
12 12 15 16 16 15 17 17 18 22 21 23 22 22 22 21 19 23 23 24 26 25 26 24 17 20 21 24 22 25 25 21 21 20 19 19 23 25 25 22 22 22 21 21 21
12 11 12 12 14 14 15 17 18 20 22 23 22 23 21 20 22 22 23 24 22 24 23 22 22 22 22 21 24 24 24 23 24 21 24 24 22 24 23 22 22 21 19 19 20
11 11 13 13 13 14 14 17 17 20 20 20 21 22 21 21 21 23 21 22 23 21 21 18 21 21 22 22 23 25 24 24 25 21 23 22 22 21 22 23 21 20 18 18 20
11 11 11 13 12 13 14 17 18 18 20 21 21 19 21 21 20 19 19 17 18 20 18 18 17 19 21 20 23 23 23 23 24 24 24 24 24 23 22 20 20 18 20 20 21
Height
1529 1527 1525 1523 1521 1520 1518 1517 1516 1516 1516 1517 1517 1516 1515 1514 1513 1512 1513 1517 1517 1517 1518 1517 1516 1515 1514 1513 1514 1516 1525 1530 1519 1519 1510 1508 1510 1512 1512 1514 1516 1518 1518 1519 1524
1528 1526 1524 1522 1520 1518 1517 1515 1514 1514 1514 1514 1515 1515 1514 1513 1511 1509 1513 1512 1514 1516 1517 1517 1517 1516 1514 1514 1514 1515 1525 1516 1503 1502 1502 1503 1506 1510 1514 1514 1517 1517 1518 1520 1523
1528 1525 1523 1521 1519 1516 1514 1513 1512 1512 1511 1512 1512 1513 1513 1513 1511 1508 1509 1510 1512 1514 1515 1515 1516 1515 1514 1513 1513 1512 1517 1506 1498 1498 1499 1502 1508 1512 1513 1517 1513 1513 1516 1521 1524
1527 1525 1522 1519 1517 1514 1512 1510 1510 1510 1509 1510 1510 1510 1511 1513 1516 1506 1507 1508 1510 1512 1514 1514 1514 1514 1513 1514 1511 1514 1504 1502 1497 1499 1502 1503 1507 1512 1512 1510 1510 1514 1515 1519 1522
1527 1524 1521 1518 1515 1512 1510 1508 1508 1507 1508 1507 1507 1508 1509 1510 1504 1506 1506 1507 1509 1511 1512 1512 1513 1513 1514 1512 1509 1508 1501 1498 1501 1498 1500 1502 1502 1508 1512 1509 1511 1513 1517 1521 1525
1526 1524 1520 1517 1514 1511 1508 1506 1506 1506 1506 1506 1506 1506 1507 1507 1502 1503 1504 1506 1507 1509 1510 1511 1512 1513 1513 1512 1512 1506 1502 1498 1496 1500 1499 1501 1505 1507 1511 1510 1512 1514 1517 1521 1522
1525 1522 1519 1516 1512 1509 1506 1505 1504 1504 1504 1504 1504 1504 1503 1497 1498 1500 1501 1504 1506 1508 1509 1511 1512 1513 1513 1510 1509 1505 1505 1499 1495 1496 1498 1500 1507 1506 1507 1510 1512 1514 1517 1519 1521
1525 1521 1518 1514 1511 1507 1504 1503 1502 1502 1502 1503 1503 1503 1499 1495 1494 1496 1500 1502 1504 1506 1508 1509 1511 1511 1511 1510 1507 1509 1510 1521 1501 1499 1499 1499 1517 1504 1507 1507 1512 1515 1518 1520 1522
1523 1520 1516 1512 1509 1506 1503 1502 1501 1501 1501 1502 1503 1502 1496 1493 1492 1494 1497 1500 1503 1505 1507 1508 1509 1510 1511 1514 1523 1521 1531 1521 1512 1502 1503 1500 1512 1504 1508 1510 1512 1515 1517 1518 1521
1522 1518 1514 1510 1507 1504 1502 1501 1501 1501 1501 1501 1501 1504 1494 1492 1491 1492 1495 1498 1502 1504 1506 1507 1507 1512 1518 1523 1545 1534 1531 1523 1522 1505 1503 1507 1508 1509 1510 1512 1514 1517 1517 1517 1517
1520 1517 1513 1509 1505 1502 1502 1501 1504 1502 1499 1495 1494 1492 1491 1491 1490 1491 1494 1497 1501 1504 1506 1505 1513 1521 1518 1516 1517 1520 1525 1527 1512 1505 1508 1516 1513 1513 1510 1513 1514 1516 1517 1517 1515
1518 1514 1511 1507 1503 1500 1500 1500 1501 1502 1496 1490 1489 1489 1488 1491 1493 1490 1493 1497 1500 1506 1505 1510 1516 1510 1509 1511 1516 1518 1522 1524 1512 1507 1511 1517 1518 1513 1512 1512 1512 1514 1514 1516 1516
1516 1512 1509 1506 1502 1500 1499 1500 1499 1499 1497 1486 1484 1484 1486 1489 1489 1488 1492 1494 1497 1504 1505 1514 1508 1505 1506 1511 1516 1517 1521 1520 1517 1511 1512 1517 1525 1519 1512 1512 1512 1513 1513 1514 1514
1514 1510 1506 1505 1503 1500 1499 1499 1496 1496 1507 1490 1482 1480 1483 1485 1486 1486 1489 1493 1497 1503 1506 1508 1502 1503 1507 1512 1513 1522 1509 1508 1511 1521 1538 1518 1548 1526 1516 1513 1510 1511 1511 1512 1511
1512 1508 1504 1502 1501 1499 1500 1498 1498 1497 1530 1482 1480 1480 1479 1483 1482 1483 1486 1490 1497 1499 1504 1509 1503 1506 1509 1508 1504 1512 1502 1507 1508 1524 1525 1526 1540 1527 1520 1517 1511 1509 1508 1509 1510
1508 1505 1501 1499 1498 1496 1497 1497 1498 1514 1522 1484 1478 1479 1482 1480 1481 1483 1486 1490 1493 1498 1501 1502 1499 1499 1499 1496 1499 1499 1505 1515 1527 1534 1549 1534 1539 1533 1522 1511 1507 1506 1507 1507 1509
1504 1501 1497 1496 1497 1496 1496 1498 1514 1525 1488 1486 1482 1479 1480 1483 1482 1482 1488 1493 1501 1514 1512 1502 1499 1494 1493 1498 1498 1503 1521 1551 1549 1557 1556 1536 1542 1522 1502 1500 1498 1501 1503 1505 1510
1499 1495 1492 1491 1491 1494 1496 1500 1517 1499 1494 1481 1479 1481 1485 1482 1482 1483 1490 1499 1494 1500 1518 1520 1522 1495 1490 1493 1500 1505 1515 1545 1552 1563 1553 1537 1542 1512 1496 1496 1500 1501 1503 1507 1509
1494 1490 1486 1486 1487 1491 1495 1513 1509 1499 1488 1486 1481 1483 1485 1480 1482 1485 1490 1497 1492 1494 1511 1520 1514 1489 1488 1486 1491 1505 1519 1512 1546 1554 1554 1545 1525 1504 1498 1497 1499 1499 1502 1506 1510
1490 1486 1485 1485 1486 1490 1496 1507 1498 1490 1486 1484 1490 1484 1487 1483 1487 1490 1494 1481 1486 1487 1488 1502 1515 1492 1486 1488 1491 1494 1499 1524 1537 1553 1555 1550 1543 1530 1500 1495 1495 1499 1501 1507 1511
1490 1486 1486 1485 1489 1491 1503 1503 1493 1487 1487 1486 1485 1486 1485 1482 1484 1490 1485 1476 1474 1484 1487 1498 1507 1501 1492 1492 1500 1502 1509 1522 1531 1543 1559 1561 1542 1498 1494 1490 1492 1497 1501 1505 1505
1489 1489 1489 1488 1491 1494 1498 1493 1488 1485 1485 1483 1480 1480 1482 1480 1479 1484 1480 1470 1466 1472 1490 1491 1509 1518 1502 1488 1490 1492 1500 1509 1531 1539 1550 1546 1530 1487 1487 1489 1492 1494 1497 1501 1505
1492 1489 1489 1489 1497 1497 1491 1488 1486 1484 1481 1479 1475 1471 1470 1474 1481 1471 1468 1457 1462 1469 1480 1486 1507 1526 1513 1502 1487 1492 1497 1505 1515 1526 1542 1541 1522 1485 1483 1488 1492 1494 1498 1504 1511
1494 1492 1490 1491 1491 1492 1491 1489 1487 1479 1477 1474 1470 1468 1469 1468 1466 1463 1461 1455 1455 1459 1465 1473 1500 1506 1522 1503 1494 1496 1493 1499 1504 1525 1532 1527 1505 1482 1482 1487 1489 1496 1499 1503 1507
1497 1495 1496 1495 1492 1491 1490 1487 1485 1479 1474 1471 1468 1469 1475 1473 1462 1462 1458 1453 1459 1460 1466 1472 1494 1494 1494 1493 1489 1488 1492 1494 1498 1505 1509 1502 1502 1482 1480 1480 1485 1494 1498 1501 1505
1497 1497 1495 1493 1491 1491 1489 1485 1483 1477 1476 1474 1474 1469 1468 1470 1462 1459 1458 1457 1458 1465 1469 1473 1493 1491 1499 1491 1488 1492 1490 1492 1492 1499 1497 1498 1497 1481 1478 1480 1484 1488 1494 1497 1500
1498 1497 1497 1493 1491 1492 1487 1481 1476 1475 1472 1473 1475 1476 1472 1470 1464 1459 1457 1453 1455 1462 1472 1478 1492 1502 1512 1500 1495 1509 1496 1494 1491 1489 1492 1500 1487 1480 1480 1481 1480 1484 1488 1492 1495
Wind_Speed
13 12 11 11 11 11 11 12 12 12 12 12 11 12 13 14 14 17 15 6 4 4 7 8 9 11 12 3 5 2 3 2 4 5 5 12 6 9 5 5 5 9 2 10 24
14 14 13 13 12 12 12 12 12 13 13 12 12 12 13 14 16 18 13 12 10 9 8 9 8 8 4 2 2 2 2 6 7 6 6 15 11 17 4 7 1 5 6 23 27
16 15 15 15 14 14 13 12 12 12 12 12 12 12 11 12 16 5 4 6 7 8 7 8 8 6 2 3 2 3 4 4 8 12 18 15 10 14 13 3 10 15 23 30 27
17 17 17 17 16 15 14 13 11 11 11 11 12 12 11 8 5 4 3 3 3 5 6 6 6 3 1 3 4 3 12 7 6 5 11 10 12 9 20 5 14 15 21 31 29
17 17 18 17 18 17 14 12 11 10 10 11 12 11 10 9 23 7 9 4 1 1 3 3 5 4 4 7 12 3 5 17 13 8 10 10 11 7 12 3 15 20 22 30 28
19 19 19 19 19 18 15 12 10 10 9 10 11 11 11 9 15 15 14 9 3 0 1 1 1 7 4 4 1 9 14 19 8 8 8 9 3 8 10 15 22 23 26 25 28
20 20 20 20 21 19 14 11 9 8 8 9 10 12 14 23 10 10 10 9 3 2 4 2 3 3 8 6 6 9 6 8 4 7 7 9 3 5 14 25 27 25 26 26 26
21 21 22 21 21 19 13 10 7 7 7 7 9 11 11 10 15 21 10 10 5 5 6 4 3 6 3 7 9 5 5 5 5 5 4 5 7 4 24 30 28 28 24 22 27
22 22 22 22 21 19 11 7 5 5 6 6 8 7 11 7 10 14 15 15 8 6 3 4 2 1 1 4 5 7 2 4 9 8 4 3 3 1 20 24 22 27 29 26 22
23 23 23 23 22 20 10 5 3 4 5 7 9 5 8 3 5 6 15 14 8 3 4 6 4 3 4 5 2 4 4 5 4 7 6 2 1 6 10 18 18 22 27 28 23
23 24 23 24 23 20 7 3 3 4 10 9 2 6 5 6 10 2 10 14 9 2 3 2 4 6 5 5 4 2 3 5 5 3 4 3 4 5 3 14 16 22 25 28 21
24 24 24 24 24 15 5 2 3 3 8 13 21 24 24 22 8 2 8 9 6 4 2 5 6 6 5 4 5 4 1 6 4 4 4 1 5 4 3 3 15 20 25 29 29
25 25 24 24 21 8 2 3 5 8 4 9 12 14 12 8 9 9 12 11 3 5 4 5 4 4 3 1 2 2 3 4 5 2 4 4 4 4 1 1 9 12 19 22 21
25 26 25 22 10 15 5 6 7 5 4 6 4 5 11 6 4 9 14 11 2 7 7 3 4 3 2 4 4 6 7 5 2 4 4 2 3 5 4 6 4 9 12 26 25
24 25 25 21 17 8 4 6 2 3 4 2 2 2 12 10 4 8 15 12 7 4 5 6 3 4 3 5 6 8 5 3 2 3 3 2 3 7 3 6 5 7 11 12 13
24 25 25 22 17 4 5 3 6 5 5 4 4 3 3 2 2 5 7 12 6 5 1 6 3 4 7 4 7 4 4 8 6 2 2 2 4 6 6 7 4 5 10 13 13
25 24 24 20 9 3 4 8 5 3 5 4 2 3 3 3 1 2 5 5 6 5 2 2 5 3 5 3 1 6 6 2 2 4 5 1 2 10 3 6 7 9 8 18 14
26 24 21 15 10 13 6 4 2 3 5 4 2 2 6 4 3 1 5 5 1 5 3 5 4 6 4 7 6 4 7 6 5 3 4 1 5 5 3 7 5 5 5 16 15
27 23 13 5 12 17 7 3 6 6 3 6 4 3 1 3 4 3 5 7 9 7 5 5 5 4 4 3 6 3 3 4 8 4 3 3 7 7 7 9 7 10 17 21 17
27 20 7 4 15 16 4 5 4 4 5 2 3 1 2 2 5 6 7 6 7 10 8 5 2 3 4 3 3 4 6 4 4 4 3 5 6 6 4 8 7 7 19 23 18
19 8 7 9 16 6 4 6 5 9 7 3 2 3 5 3 7 6 7 4 9 7 7 5 2 7 3 2 3 1 2 7 6 4 5 2 6 7 7 8 10 9 21 25 22
7 2 6 10 2 1 4 6 3 4 7 7 3 9 6 7 4 7 10 8 18 18 11 8 5 4 7 3 3 3 5 5 5 4 1 3 6 1 5 6 13 14 22 25 22
14 3 8 3 2 1 5 3 4 5 6 5 4 6 3 5 3 8 8 12 24 9 10 8 1 3 9 7 2 3 2 5 6 4 5 4 6 2 7 6 8 17 15 20 18
6 2 2 4 0 3 3 4 3 7 7 7 5 2 1 5 7 4 3 6 25 17 18 14 4 7 8 6 4 4 3 4 4 4 5 6 7 11 2 6 10 15 17 23 23
3 1 1 1 2 2 2 2 3 3 3 4 3 2 4 5 3 5 1 1 7 13 6 7 6 3 0 5 3 4 6 6 4 5 5 5 7 10 4 8 10 15 24 29 28
3 4 3 3 5 3 1 3 3 2 3 6 3 13 12 5 5 3 5 1 4 4 5 3 4 3 5 5 4 3 2 4 1 3 4 3 7 5 6 5 14 28 32 33 29
2 3 3 4 2 0 3 4 5 6 5 10 6 3 7 7 3 19 17 18 8 7 4 4 7 4 4 3 4 4 4 3 2 3 3 4 5 3 3 7 23 32 35 37 32
Wind_Direction
4 359 352 343 328 316 303 292 281 276 274 275 281 289 295 295 290 290 288 285 267 264 307 331 348 352 326 277 216 188 76 242 230 156 233 164 174 164 205 146 156 159 183 180 166
1 356 352 346 334 322 308 295 285 277 271 269 272 278 291 298 294 280 292 277 259 254 274 313 343 350 311 281 188 144 116 223 210 203 196 178 176 152 157 190 154 155 148 165 167
359 354 350 345 338 327 315 300 288 280 274 268 265 269 281 298 309 281 289 256 248 239 275 309 343 359 317 305 183 205 218 249 242 202 197 172 180 160 146 270 214 177 158 167 174
359 354 349 344 339 330 319 303 290 281 276 269 262 261 269 277 255 173 118 119 187 235 270 309 336 341 16 328 286 266 247 241 274 186 171 161 161 139 168 220 209 202 176 173 181
360 355 350 344 340 333 321 305 292 281 275 267 259 255 259 250 244 232 289 320 19 173 246 338 352 8 14 320 325 178 311 328 308 164 189 174 178 152 195 169 174 179 179 183 188
357 355 351 346 341 335 321 307 293 281 270 262 259 255 251 250 253 260 266 269 313 91 258 336 6 323 304 257 191 294 300 308 288 181 174 168 142 158 175 167 173 184 184 195 196
353 351 350 347 343 337 323 308 293 274 261 258 258 257 255 244 254 262 251 245 266 277 302 291 294 313 322 308 331 293 327 334 247 178 188 148 94 214 163 169 173 184 191 199 208
349 349 347 345 344 339 324 308 286 265 259 258 261 268 259 266 253 259 234 236 245 275 305 303 287 293 244 312 340 19 44 347 347 1 345 159 259 276 163 167 174 179 180 200 211
346 345 344 342 342 341 324 308 279 263 259 257 262 260 267 267 258 237 232 226 225 274 277 273 234 207 5 55 3 15 327 1 321 34 325 93 224 336 166 169 176 188 192 202 209
343 341 341 338 337 340 323 302 273 256 246 254 248 288 255 256 333 250 218 227 232 273 171 177 152 83 36 65 263 308 344 314 288 318 47 70 139 21 170 175 182 193 200 209 225
340 339 338 337 334 336 318 274 279 270 228 226 242 236 258 292 329 200 207 204 212 220 148 62 102 209 181 181 188 200 197 282 272 243 78 354 54 16 189 182 185 199 207 212 234
336 335 336 337 335 337 324 217 354 310 299 267 254 256 261 275 296 245 185 160 159 176 134 28 217 151 167 176 217 205 327 289 296 20 90 329 57 64 32 174 199 201 217 221 233
334 334 334 338 340 13 46 97 322 249 288 283 246 245 256 236 226 241 176 164 141 138 162 156 217 140 102 270 276 237 205 246 244 70 62 132 12 338 312 216 210 211 229 231 241
331 332 332 339 344 336 165 346 347 177 42 280 258 245 191 153 228 199 179 179 116 192 138 224 267 217 178 248 145 307 186 230 205 102 188 31 253 260 245 293 212 199 217 232 245
328 329 327 328 324 325 199 340 148 86 358 242 220 173 168 174 142 195 189 184 169 168 112 234 166 117 282 212 175 248 47 354 95 107 110 7 66 266 26 264 247 198 219 208 222
324 325 320 320 326 240 223 302 154 46 260 337 138 150 166 223 130 128 165 180 195 146 80 214 246 218 211 220 167 215 102 36 46 74 37 335 138 283 194 202 197 190 198 205 196
321 320 313 307 299 175 176 154 41 139 324 342 265 158 178 161 198 130 131 141 154 117 84 327 257 253 217 326 119 88 64 344 342 19 221 115 58 241 226 216 183 181 187 179 189
321 318 310 294 257 188 163 65 178 253 275 299 298 114 171 155 239 98 110 149 303 90 114 146 299 171 176 190 191 160 154 153 204 189 253 108 240 259 236 167 186 241 181 175 180
324 325 317 275 195 178 175 98 212 214 279 317 328 111 234 186 161 134 181 189 187 160 157 138 272 285 220 148 141 179 175 168 103 25 56 281 292 300 236 259 247 213 191 186 176
330 331 359 191 172 163 93 219 239 231 309 17 58 5 97 183 158 157 181 203 191 183 154 194 295 243 293 105 41 191 152 68 15 123 227 298 287 246 236 202 174 186 183 183 172
333 344 6 145 152 167 154 228 265 274 273 313 263 274 231 229 189 187 207 256 183 171 132 137 130 297 342 21 156 149 95 56 111 103 157 219 266 218 217 200 175 179 186 182 179
353 26 133 135 101 47 159 200 248 276 272 260 229 208 201 188 234 216 206 215 177 144 159 190 138 217 243 256 195 210 177 131 123 218 173 160 270 169 263 198 177 152 182 188 183
337 321 178 2 127 289 289 282 237 247 231 238 256 210 186 223 218 199 199 218 163 143 155 175 229 20 347 353 337 71 80 98 108 93 189 142 266 270 81 124 181 148 155 169 155
335 21 96 235 93 128 357 267 294 282 258 236 253 293 347 265 218 273 244 194 184 176 168 142 130 159 190 207 163 159 166 176 112 119 173 224 285 298 158 168 176 134 110 143 155
330 3 19 298 317 330 277 298 279 297 248 298 325 134 350 283 326 207 270 173 62 141 114 131 181 124 269 249 227 159 172 179 168 160 157 238 210 265 254 217 181 141 138 139 147
358 352 351 289 306 302 213 221 253 277 31 280 333 342 343 259 230 266 170 133 161 32 111 1 171 111 5 356 90 108 159 187 132 139 273 250 277 244 299 175 134 144 147 145 151
345 319 308 307 328 269 246 287 286 11 261 245 1 8 356 324 56 84 86 84 102 137 126 111 131 117 188 339 59 13 241 203 260 170 203 213 244 314 274 218 150 153 165 166 167